Theta_e
349 347 347 347 347 347 347 351 353 352 352 353 352 352 351 351 351 351 351 347 341 340 339 340 341 340 341 341 339 339 340 341 343 345 347 348 349 350 350 350 350 350 351 351 351 352 351 350 349 351 352 348 347 346 344 342 341 342 344 342 341 344 344
349 347 348 348 348 348 347 350 352 352 352 352 352 352 351 351 351 352 351 347 342 340 339 337 338 338 339 341 342 341 340 343 346 347 349 349 348 349 350 350 351 351 351 351 352 352 352 350 347 349 351 350 350 349 345 344 342 342 345 344 342 343 342
348 346 347 348 348 349 348 349 351 351 352 352 352 352 351 351 352 350 350 348 345 344 344 341 337 337 337 339 342 342 340 343 346 346 348 349 348 348 349 350 351 351 351 351 352 352 351 352 350 349 349 351 352 351 348 347 346 345 345 343 343 345 344
350 349 348 349 349 350 350 350 350 351 351 351 351 352 351 351 351 350 349 349 348 348 349 347 343 341 340 339 341 342 341 343 346 347 348 349 349 349 349 350 350 350 351 351 351 351 351 352 352 350 348 348 350 351 350 350 351 350 347 344 346 348 348
353 352 350 349 348 350 351 351 351 351 350 350 351 352 352 351 350 351 351 351 350 349 350 350 348 347 346 343 342 344 344 344 345 347 349 349 349 350 349 350 350 349 350 350 351 351 351 351 351 352 349 347 348 350 351 351 352 351 348 346 350 354 354
354 354 352 350 347 347 349 351 352 351 350 350 350 351 353 351 350 351 352 352 351 350 350 350 349 350 348 346 346 347 347 345 344 345 348 349 349 349 349 349 349 348 349 349 350 350 351 350 350 351 351 350 351 352 352 353 354 353 352 351 352 354 354
355 355 354 353 350 346 345 348 350 351 351 350 350 350 351 352 352 351 350 351 351 351 350 350 349 349 349 348 347 347 346 346 345 345 347 348 348 349 348 348 348 348 348 349 349 349 350 350 350 350 350 351 351 352 353 354 353 352 353 355 352 351 352
353 354 354 354 354 351 348 347 348 349 350 350 350 351 350 351 352 350 347 349 350 351 351 351 349 349 350 349 347 347 346 345 345 346 346 347 347 348 347 347 347 348 348 348 348 349 349 349 349 350 350 351 352 353 354 355 354 351 352 355 355 354 354
353 353 353 354 354 354 352 350 348 348 349 350 351 351 350 351 353 351 347 346 347 348 349 351 351 349 350 350 348 348 346 344 344 345 345 345 346 346 346 346 347 348 348 347 346 347 348 348 349 350 351 352 352 353 353 352 352 352 354 356 356 355 355
354 353 353 353 353 354 354 351 348 347 349 350 350 349 348 349 351 351 349 347 345 345 346 349 352 352 351 350 348 347 346 345 344 344 345 345 344 345 345 345 346 347 347 346 345 345 347 348 349 350 351 351 351 352 351 348 347 349 351 354 355 354 353
353 352 352 353 353 354 354 352 347 346 347 348 347 347 347 347 347 348 349 348 345 345 345 346 348 352 351 348 347 347 347 346 345 345 345 345 344 344 344 344 344 346 346 346 344 344 345 347 349 350 350 350 350 351 352 351 349 348 348 352 355 353 350
351 352 353 352 352 353 354 352 348 345 345 345 345 345 345 346 347 348 349 349 346 344 345 345 345 347 348 346 346 347 347 347 347 347 347 346 345 344 344 344 344 345 346 346 345 345 345 346 347 348 349 349 350 351 353 354 353 352 350 351 353 351 349
350 352 352 351 352 352 353 353 350 346 344 344 346 346 346 345 346 347 348 349 348 345 344 345 345 345 345 345 345 345 346 347 348 348 349 348 346 346 346 345 344 344 346 346 346 345 345 345 346 347 347 348 350 351 351 352 352 351 350 349 349 348 348
350 351 351 351 351 351 352 353 352 350 348 347 346 346 346 345 344 345 344 346 348 347 345 344 345 346 345 344 345 345 346 346 347 347 348 348 347 347 348 347 345 346 347 347 347 347 345 344 344 346 348 349 350 350 348 348 350 350 348 348 348 347 347
350 350 351 351 350 351 351 352 352 352 352 351 348 346 345 345 345 346 345 345 346 346 346 345 345 346 345 345 345 345 345 345 346 346 347 347 347 347 348 347 345 345 346 346 347 346 346 346 345 347 349 350 348 344 344 348 349 349 349 348 347 347 347
350 350 350 350 350 350 350 351 352 353 352 352 351 348 347 346 345 346 346 346 346 346 345 345 345 346 346 346 346 346 345 345 345 346 346 346 347 348 348 347 345 342 342 342 342 341 343 344 346 347 350 351 347 342 342 346 347 348 347 346 346 346 346
350 350 349 350 350 350 350 350 350 351 351 351 351 351 349 348 347 347 347 347 348 348 347 346 346 346 346 346 347 348 347 345 344 345 345 343 346 347 347 346 344 341 340 341 340 340 341 342 344 346 349 351 349 345 343 342 344 346 345 344 345 345 345
350 350 349 349 349 349 349 349 349 349 350 349 349 350 350 350 350 348 348 348 349 349 349 348 348 346 345 346 347 348 348 345 345 346 345 344 344 346 346 346 345 343 340 341 342 343 343 343 345 347 348 349 349 348 346 344 345 346 345 344 345 345 347
350 349 348 347 348 348 348 348 348 348 349 348 347 347 348 348 349 349 349 349 349 349 350 349 348 347 347 346 345 346 346 345 345 345 345 344 342 344 348 348 347 345 343 344 346 346 346 347 348 349 349 349 349 348 348 347 346 346 345 345 345 346 348
349 348 348 347 347 348 348 348 348 348 348 348 347 347 347 347 347 348 349 348 348 350 350 349 349 349 349 349 347 348 348 347 346 346 347 347 345 346 348 348 348 348 347 347 349 349 349 350 349 349 348 348 348 348 348 347 347 348 347 348 347 348 349
348 348 348 347 347 347 347 347 347 347 348 348 347 347 347 347 347 347 347 347 348 349 349 349 349 348 348 348 348 348 348 348 348 348 349 349 348 347 346 346 348 350 350 349 348 349 350 349 348 348 348 349 349 349 349 348 348 349 349 349 349 349 349
348 347 347 347 346 346 346 346 346 347 347 347 347 347 347 348 347 347 347 347 347 348 348 348 348 348 347 347 347 347 348 349 349 349 349 349 348 347 346 347 350 351 351 350 349 349 349 348 348 349 348 349 350 350 349 348 348 348 347 346 346 346 347
347 346 346 346 345 345 346 346 346 347 347 347 347 347 348 348 348 347 347 346 346 346 347 346 347 348 348 347 347 347 348 348 348 348 348 348 348 348 348 349 350 351 351 350 350 350 348 347 348 349 349 350 349 349 348 347 345 344 343 343 344 344 345
345 345 345 345 345 346 346 345 347 347 346 347 347 347 347 347 347 347 347 345 346 346 346 347 346 346 346 347 347 347 348 348 348 347 347 347 348 348 348 349 349 350 350 349 349 349 348 347 348 349 350 349 349 347 346 344 343 342 343 343 343 343 343
345 345 345 345 345 346 346 346 347 347 347 347 347 346 347 346 347 348 347 346 346 346 346 347 346 346 346 346 346 347 347 345 344 345 346 346 346 346 346 347 348 348 348 347 347 349 349 349 349 350 349 348 346 344 341 340 341 341 341 339 338 338 338
345 345 345 345 345 346 347 347 347 347 347 347 346 346 346 346 347 347 347 347 346 345 346 347 346 346 345 346 346 347 346 343 342 344 346 345 345 346 346 347 348 348 348 348 348 349 349 348 348 347 345 343 341 338 337 337 338 338 338 337 335 335 334
345 345 345 345 345 346 346 346 346 345 345 345 345 345 345 345 345 345 346 346 346 346 346 345 345 345 345 345 346 347 347 346 345 346 347 346 346 347 347 347 348 348 348 348 347 347 347 347 346 344 341 338 337 336 336 337 338 337 336 335 333 333 333
344 344 344 344 344 344 345 344 344 344 344 345 345 345 345 346 345 344 345 346 346 346 345 345 345 345 345 345 345 345 346 346 346 346 347 346 346 348 349 348 346 345 345 346 346 345 344 344 341 339 337 336 336 337 336 335 334 332 331 330 331 332 332
344 343 343 343 342 343 343 343 342 343 344 344 345 345 346 346 345 344 345 345 344 344 345 345 345 345 345 345 345 345 344 345 345 346 346 346 345 346 347 345 343 343 342 343 344 342 339 337 336 335 335 335 334 333 332 330 329 328 328 329 330 330 330
343 341 341 342 342 342 341 341 341 342 343 344 344 345 345 345 345 345 345 344 343 343 344 344 345 345 346 345 345 344 344 344 345 345 345 345 345 346 344 342 342 342 340 339 338 336 334 333 333 333 333 332 330 329 327 327 327 328 328 329 329 329 329
341 340 340 341 341 341 341 341 341 342 343 344 344 344 345 345 344 344 344 343 343 343 344 344 344 345 345 343 343 343 343 343 343 343 343 343 343 344 342 341 341 340 338 337 337 335 333 332 330 330 329 329 328 327 326 326 328 329 330 330 329 328 326
339 339 339 339 340 341 341 341 342 342 343 344 343 343 343 343 342 343 342 342 342 342 343 343 343 343 342 341 341 341 341 341 341 342 342 341 342 342 341 340 340 338 335 334 332 329 326 323 322 324 326 328 328 327 326 328 329 330 329 327 325 322 320
339 339 337 337 339 341 342 342 342 342 342 342 342 341 340 340 340 341 340 340 341 340 341 341 341 341 340 340 339 339 339 339 338 337 337 336 336 335 335 334 333 330 328 326 323 320 318 318 321 325 327 328 329 328 328 329 329 328 326 323 322 321 321
339 338 337 337 340 342 342 342 342 342 340 339 339 339 338 338 339 338 339 339 339 339 340 340 338 338 337 337 337 337 337 337 336 335 334 333 331 329 327 326 324 322 321 322 323 322 322 324 327 328 329 329 328 328 329 328 327 327 325 323 323 323 323
338 337 338 340 341 341 341 340 340 339 338 337 337 337 336 336 336 337 337 338 338 338 338 337 335 334 333 332 332 331 329 329 330 330 329 329 328 327 324 320 317 314 313 315 320 324 326 328 329 329 330 330 328 328 329 329 327 326 324 323 323 324 325
337 337 339 341 340 340 340 339 338 336 334 332 332 331 329 328 328 330 333 335 336 336 335 333 332 331 330 330 329 327 323 320 317 316 315 315 315 315 313 310 309 308 308 309 313 316 320 324 326 328 328 328 328 328 328 326 325 324 323 321 321 323 324
337 336 338 340 340 339 339 337 336 334 331 329 327 326 324 321 319 320 322 326 328 329 329 328 328 329 329 327 325 324 323 319 314 310 309 309 309 308 308 308 308 308 309 309 310 311 313 316 318 319 320 321 323 325 325 323 322 322 321 319 317 318 319
337 335 336 338 339 338 338 337 335 332 329 328 327 324 321 318 317 316 316 317 318 320 320 322 325 329 329 325 320 319 318 317 315 313 310 309 309 309 309 310 311 311 311 312 313 314 314 315 315 316 317 317 318 319 320 321 322 322 320 318 316 316 316
Wind_Speed
16 15 15 16 17 18 18 19 19 20 20 21 21 20 20 19 18 18 18 20 21 21 20 20 20 20 18 19 20 20 19 19 18 17 16 14 13 12 12 11 10 9 8 7 7 7 7 8 8 8 8 8 7 7 6 6 6 6 6 7 7 7 7
17 19 17 15 17 18 19 20 20 19 20 20 21 21 21 21 20 20 19 20 20 21 21 20 20 20 19 19 19 20 20 19 19 17 16 15 16 14 12 11 10 9 9 8 7 7 7 7 8 8 8 8 7 7 7 6 6 6 6 7 7 7 7
15 20 20 17 17 17 19 20 20 20 20 19 20 21 22 22 22 22 21 20 21 21 21 21 20 20 20 20 20 20 21 20 19 19 17 15 15 14 12 11 11 9 9 9 8 7 7 7 8 8 8 8 7 8 8 7 7 6 7 8 7 7 8
10 14 17 17 16 15 16 19 19 20 20 19 20 21 23 24 23 22 22 20 21 21 21 21 20 20 20 20 21 21 21 21 20 19 17 15 14 14 13 13 12 11 10 10 9 8 7 7 8 8 9 9 9 8 8 8 7 7 8 8 7 7 8
8 10 13 17 18 15 13 16 18 19 19 19 19 20 21 23 22 21 21 21 20 21 21 20 20 20 20 20 20 20 20 21 21 19 18 16 15 14 14 13 12 12 11 10 9 9 9 8 8 8 9 9 9 8 9 8 7 8 9 8 7 7 8
6 7 8 12 18 21 17 14 15 17 18 18 18 19 19 20 21 21 21 21 20 20 20 20 19 20 20 20 19 19 19 21 21 21 19 17 16 15 14 13 13 12 12 11 10 9 10 9 9 9 9 9 9 8 8 8 8 7 8 9 9 8 8
1 3 5 6 12 20 22 18 13 14 16 17 18 19 19 20 21 21 21 21 21 20 20 20 20 20 20 19 19 19 19 20 20 21 20 18 17 16 14 14 13 13 12 11 10 10 10 10 10 10 10 10 10 9 9 10 11 11 9 9 11 10 9
1 2 4 5 7 12 18 20 16 12 14 16 17 19 19 19 21 23 23 22 22 22 21 20 20 20 20 19 20 20 20 19 19 20 20 19 18 17 16 14 14 14 13 12 11 11 11 11 11 11 10 10 10 10 10 10 12 12 10 10 11 10 8
3 3 4 5 7 8 11 16 17 15 14 15 17 19 20 19 20 22 24 24 24 24 23 21 19 19 20 20 20 20 20 19 19 19 19 19 19 18 16 16 15 14 14 13 12 12 12 11 11 11 11 11 10 11 12 13 13 13 11 11 11 10 10
3 4 4 5 7 8 10 13 18 19 17 17 19 20 21 21 21 21 22 24 26 24 24 22 18 18 20 21 20 19 19 19 19 19 19 20 19 18 17 16 15 14 14 14 13 12 12 12 11 12 12 11 11 11 13 14 15 14 12 11 11 12 13
3 4 4 5 6 7 9 11 16 19 19 18 19 20 22 22 22 21 21 24 25 24 25 23 20 20 22 22 20 19 19 19 18 18 19 19 18 18 17 16 15 15 14 14 14 13 13 13 12 12 12 12 11 11 11 12 12 12 11 10 10 13 14
3 3 3 4 5 6 8 10 14 18 19 16 15 18 20 20 21 21 21 23 24 23 24 24 22 23 24 24 22 21 20 20 19 18 18 19 18 17 17 17 16 16 15 14 14 14 14 13 13 12 12 11 11 10 10 10 10 10 11 10 11 13 14
3 3 3 3 4 4 6 8 11 15 18 16 14 14 16 18 20 21 21 22 22 23 24 23 24 25 24 23 23 22 22 21 20 20 19 19 18 17 17 17 16 16 15 15 14 14 14 14 13 13 12 12 12 12 13 13 11 11 12 12 12 13 13
3 3 3 3 3 4 5 6 8 11 14 16 16 15 14 16 19 21 22 22 22 22 23 23 24 26 25 23 22 22 23 23 22 21 21 20 18 17 17 17 16 16 15 15 14 14 14 13 13 12 12 11 12 15 16 15 14 14 14 14 14 14 13
4 3 3 3 2 3 3 4 5 7 9 12 15 17 17 17 17 19 21 23 24 24 23 22 24 26 26 24 22 22 23 23 23 23 21 20 19 18 17 17 18 18 17 17 16 15 14 13 13 12 11 11 14 16 17 16 16 16 15 16 16 15 14
4 3 3 2 2 2 2 3 3 3 6 8 9 13 16 18 18 18 19 21 23 25 25 24 24 26 26 26 23 23 23 22 22 22 21 19 18 17 16 17 18 19 19 19 19 18 16 15 14 12 11 11 14 16 17 17 17 17 17 18 18 17 17
4 3 2 1 1 2 2 2 2 2 3 4 5 7 10 13 15 18 19 18 18 20 23 24 25 25 25 24 22 21 20 19 18 19 20 19 18 17 16 16 17 19 19 19 18 18 17 16 15 14 13 13 14 15 17 17 17 17 18 19 19 20 18
4 3 2 1 1 1 2 2 2 2 2 3 4 5 7 8 10 13 16 18 16 15 17 21 23 24 25 24 23 20 19 19 18 18 19 21 21 19 17 16 17 18 19 19 17 17 17 16 15 16 16 15 16 16 16 16 17 18 19 18 18 18 14
3 3 3 2 2 2 1 1 2 1 2 4 5 5 6 8 9 11 13 15 15 14 14 17 19 21 22 24 24 22 21 20 20 21 21 21 22 22 19 17 17 18 19 18 17 17 16 16 15 16 15 15 16 15 15 15 16 16 16 15 15 15 12
2 3 3 2 2 2 1 1 1 1 1 2 3 4 5 7 9 10 12 14 15 15 15 15 15 16 17 18 19 19 18 18 19 20 19 19 21 22 20 18 18 19 18 18 18 16 15 14 15 15 15 14 14 13 13 14 13 13 13 13 13 13 12
3 3 3 2 3 2 2 1 1 2 2 3 4 4 3 4 5 8 11 13 15 16 17 15 13 14 14 14 14 14 14 15 15 16 16 17 20 21 20 20 19 18 18 19 19 17 15 14 14 14 13 12 12 11 11 11 11 12 12 13 13 14 14
4 3 3 3 2 2 2 1 1 3 4 5 6 6 4 2 2 4 7 9 9 13 17 16 14 13 14 13 14 14 14 14 14 15 16 18 19 20 21 20 18 18 19 20 19 17 16 15 14 14 12 11 10 10 9 9 10 10 10 11 12 12 11
4 3 3 2 2 2 2 2 2 3 4 5 6 7 5 3 4 4 5 6 6 7 11 13 12 12 12 12 12 12 12 12 14 15 16 17 18 19 19 18 19 20 20 20 19 17 16 15 14 13 11 10 9 8 8 7 6 5 4 4 4 4 6
3 3 3 3 2 2 2 2 3 3 3 5 6 6 5 5 6 6 6 6 7 6 6 8 8 9 9 8 8 8 9 10 11 12 13 14 15 17 17 18 20 20 20 19 18 16 15 15 14 11 8 7 7 6 6 4 1 2 5 7 7 6 7
4 3 4 4 3 4 3 3 4 4 4 6 6 6 7 6 6 7 7 7 7 6 6 7 7 8 9 7 7 8 7 8 10 11 12 13 14 16 16 17 18 18 18 17 16 16 16 15 12 9 7 6 6 4 3 5 8 10 11 12 11 11 12
5 4 4 5 4 4 4 3 3 3 4 5 5 7 9 7 5 6 7 8 8 7 7 7 6 8 9 10 9 8 9 10 10 10 11 12 13 15 16 17 18 18 18 17 17 17 16 13 11 10 10 10 10 10 11 12 14 14 14 13 13 13 15
6 5 6 6 6 6 5 3 3 3 4 3 4 6 8 7 5 6 6 7 9 9 8 7 7 8 9 10 9 8 8 9 9 8 9 10 12 15 17 18 19 21 22 21 19 17 15 13 12 12 14 15 14 14 14 15 16 16 15 15 15 16 17
7 7 6 6 6 6 5 5 4 5 7 8 6 7 7 7 6 7 8 9 9 9 8 7 8 8 8 9 9 8 8 9 9 9 9 10 13 16 18 19 20 21 21 19 16 14 15 15 14 15 16 17 17 17 17 18 19 19 17 16 16 17 19
8 7 6 5 6 6 5 4 4 7 10 11 9 7 7 8 8 9 11 12 11 9 8 8 9 9 8 9 10 10 9 9 11 11 11 13 15 16 18 19 18 17 17 17 15 16 18 20 19 19 20 21 22 22 22 22 22 21 19 18 17 19 21
7 6 6 5 6 6 4 3 5 9 13 14 12 9 8 8 10 11 11 10 9 8 9 9 10 10 10 9 10 11 12 14 15 15 15 16 16 15 16 18 19 17 18 19 18 19 22 23 22 22 23 25 25 24 24 24 24 23 21 20 19 19 20
7 7 7 6 6 5 4 5 9 13 16 15 12 10 9 9 10 11 10 8 7 7 9 10 11 12 12 12 14 17 18 19 19 20 20 19 18 16 15 17 18 18 19 20 20 20 22 23 23 24 26 25 24 24 25 26 26 25 23 21 20 19 19
8 8 8 6 6 6 7 10 13 14 15 14 12 11 10 10 9 10 10 9 8 9 12 13 14 15 16 17 19 21 21 20 20 20 20 21 20 19 18 18 18 19 20 20 20 20 21 22 23 24 24 22 21 24 28 28 27 26 24 22 22 22 21
9 8 7 6 7 8 11 14 15 14 14 14 12 11 11 10 9 10 11 10 9 11 14 15 16 17 18 19 20 21 21 22 22 22 22 21 20 20 20 20 19 19 19 18 17 19 21 22 22 22 22 21 20 22 26 27 26 25 25 24 24 23 21
9 8 7 8 10 12 13 15 15 14 14 13 13 13 13 12 12 12 13 12 12 14 15 16 16 18 19 19 21 22 22 23 23 24 24 23 23 22 22 21 19 20 20 19 18 18 19 20 21 21 21 22 21 20 21 22 22 22 23 23 23 22 20
10 9 10 12 12 13 15 16 16 16 15 14 13 14 15 16 15 14 13 14 15 16 16 16 17 18 19 20 21 22 21 21 21 21 21 21 21 22 22 21 21 22 24 24 23 22 20 19 20 20 20 22 22 20 19 19 20 21 20 20 21 19 17
11 11 12 13 13 13 14 16 17 18 18 17 16 16 17 19 18 17 15 14 15 17 18 19 20 19 20 20 20 20 21 20 20 20 20 20 20 20 21 21 20 21 22 23 23 24 24 23 22 21 20 22 23 21 19 20 22 23 21 19 18 18 16
11 12 13 14 14 13 13 15 16 18 19 20 20 19 20 20 20 20 19 17 17 19 21 23 22 20 19 19 19 19 20 20 20 21 21 21 21 22 23 23 23 22 22 22 22 22 23 22 21 20 19 20 21 22 22 22 23 23 21 19 18 18 17
12 11 12 13 13 13 13 15 16 18 19 20 20 19 21 22 22 21 21 19 17 17 18 20 20 18 17 18 19 19 19 19 19 19 20 21 22 23 23 23 24 24 23 23 23 22 21 20 19 19 18 18 20 21 22 22 22 20 19 18 17 17 16
Wind_Direction
204 213 219 215 209 208 206 204 200 197 195 196 197 196 194 194 193 192 194 197 195 195 196 197 198 200 203 206 208 207 204 199 197 197 198 200 199 200 202 203 204 203 205 209 211 214 217 219 215 212 225 236 238 245 250 249 247 245 245 246 244 245 245
206 214 223 223 213 209 209 207 204 201 199 199 200 197 195 195 195 195 198 201 199 196 199 200 200 201 201 204 207 209 206 201 200 199 200 204 204 201 202 204 207 208 205 205 210 213 217 221 218 214 222 232 239 248 252 249 245 239 238 244 246 249 253
203 211 222 227 220 214 211 207 206 205 203 202 201 199 199 198 200 201 202 203 202 199 200 202 204 204 204 204 206 209 209 207 206 205 203 207 208 205 206 209 208 210 212 212 214 218 220 221 222 222 224 224 229 242 250 250 251 248 244 245 247 255 264
193 202 213 221 221 217 213 208 206 206 207 207 205 202 203 202 203 206 206 202 201 201 200 202 204 205 206 208 208 209 210 209 210 210 208 209 210 208 211 213 210 209 214 215 217 217 214 213 220 229 234 230 224 229 239 244 247 249 248 248 251 259 266
183 190 205 215 215 211 210 210 209 209 210 210 209 206 205 206 207 208 207 203 201 202 202 201 203 204 207 209 210 210 211 211 211 210 210 210 211 211 211 213 213 213 213 215 217 219 216 214 218 227 237 240 235 233 240 246 247 248 249 248 250 257 265
180 189 201 212 215 215 214 211 210 212 212 210 209 207 203 206 209 208 208 206 204 204 203 202 203 205 207 208 209 210 211 213 213 211 210 210 211 212 213 214 214 214 214 214 216 220 222 222 224 226 230 235 234 233 236 239 236 235 243 248 247 249 255
185 203 206 208 216 220 221 218 214 214 213 209 209 208 205 204 206 207 210 210 208 207 205 205 205 206 208 208 208 211 211 212 215 214 211 210 211 212 214 215 215 214 214 216 217 219 222 225 228 230 231 232 232 231 232 235 233 228 229 243 250 251 257
286 269 244 229 219 220 221 221 219 215 213 209 206 208 208 205 204 212 218 216 212 211 208 207 207 207 208 210 210 212 213 211 213 215 213 212 213 214 214 214 214 214 214 217 221 222 223 225 228 229 231 232 234 235 235 239 243 241 236 241 249 253 260
298 285 265 246 230 218 213 213 213 209 207 207 205 208 211 206 203 213 223 222 219 218 214 210 209 209 209 211 213 213 213 211 211 213 214 213 215 216 215 215 214 215 218 219 222 224 224 225 225 227 228 228 232 237 238 239 243 244 239 239 245 249 254
302 287 269 251 235 222 215 215 216 210 202 202 206 214 219 216 212 215 222 226 227 226 221 214 208 209 212 215 217 214 211 211 211 212 214 214 217 219 218 218 218 219 222 223 224 225 225 225 224 226 231 232 235 242 246 245 247 248 245 242 247 253 258
289 296 282 258 239 224 220 224 223 215 207 209 215 220 224 222 223 223 222 228 234 232 228 221 211 211 217 220 221 216 212 211 210 212 215 216 219 221 221 221 222 224 227 227 227 227 226 227 227 230 236 239 241 247 252 254 257 262 263 258 257 262 265
275 291 293 267 244 230 223 223 224 217 213 217 224 229 228 225 225 227 225 231 237 237 234 228 218 219 225 227 224 220 216 214 212 213 216 218 219 222 223 223 223 226 228 229 229 228 227 229 231 234 238 241 244 246 247 251 258 266 270 265 264 271 276
265 270 279 268 244 234 226 223 223 220 218 222 225 227 228 225 225 227 228 232 236 238 237 232 223 224 230 230 227 224 221 219 217 217 219 221 221 221 223 225 226 229 231 232 232 231 229 231 233 237 241 243 245 244 242 245 254 262 268 270 270 274 279
258 258 259 259 243 229 225 221 218 218 222 228 231 231 230 229 228 230 233 234 234 236 237 234 227 226 229 229 228 227 225 224 224 223 223 226 227 225 225 226 226 228 230 230 230 230 231 233 237 239 240 239 240 245 246 247 254 262 269 273 274 275 276
248 249 245 240 230 216 217 216 204 203 212 222 231 233 231 231 230 230 233 234 235 236 235 232 229 228 229 229 228 229 229 229 230 230 229 231 232 230 231 232 230 228 229 230 229 230 231 232 234 236 237 239 245 251 252 251 255 263 271 274 273 273 274
234 245 249 222 185 164 180 198 191 188 205 217 228 233 232 233 232 230 232 233 235 237 235 231 229 229 229 229 229 231 232 231 234 236 237 237 234 228 230 234 233 231 232 235 237 236 235 233 232 234 236 241 251 256 255 254 257 264 271 274 272 269 273
223 223 237 192 135 109 121 162 178 176 202 222 233 237 238 238 238 236 235 234 233 234 233 230 228 228 228 228 229 229 230 231 232 234 235 235 231 226 227 230 229 229 231 235 239 238 237 235 233 232 230 232 243 254 256 256 259 264 270 272 271 271 274
204 184 180 179 153 133 128 142 153 163 192 223 237 240 241 242 244 241 237 234 231 228 226 224 224 225 226 227 229 229 229 228 227 228 229 227 224 223 224 224 222 223 227 230 232 232 231 230 228 229 231 233 239 247 253 255 257 262 267 270 272 274 276
187 168 168 186 158 139 138 138 147 167 196 213 222 232 238 240 243 240 232 229 225 219 218 218 218 221 221 223 228 229 228 226 225 226 227 225 222 219 216 217 216 217 220 223 225 226 225 225 226 230 234 236 239 244 250 256 260 264 268 270 272 275 274
189 174 164 155 128 118 105 125 171 173 176 195 200 209 225 232 236 235 230 228 221 207 202 205 205 206 210 217 223 224 224 223 220 220 220 219 219 216 214 218 220 216 215 217 221 221 218 220 225 229 232 236 240 245 250 256 263 269 273 275 277 277 274
175 176 160 137 131 133 119 124 167 176 177 170 157 165 196 224 234 228 222 226 224 206 194 195 196 196 200 207 213 216 218 219 215 211 211 214 218 219 221 226 225 217 213 215 218 219 219 221 224 227 229 233 238 244 249 258 268 274 278 278 276 273 270
140 141 131 127 128 132 144 163 184 189 186 175 162 168 182 180 176 196 199 208 215 203 194 193 195 198 201 205 210 214 219 222 216 210 212 219 224 225 227 227 218 210 213 215 216 219 224 227 225 223 224 230 237 245 253 265 274 276 273 268 264 262 261
134 125 112 115 113 124 159 179 192 196 191 182 178 178 179 157 133 140 165 174 171 176 184 184 184 189 197 202 205 207 213 216 213 211 215 225 230 228 223 217 207 204 210 214 213 215 221 225 225 220 218 227 237 245 255 266 276 274 260 245 239 233 231
144 132 122 121 123 138 151 154 165 180 182 185 190 184 172 161 150 149 154 157 154 151 157 163 167 171 175 182 191 199 210 216 212 209 211 216 219 216 210 207 205 203 206 209 209 209 211 215 220 218 211 220 233 243 253 261 244 114 111 110 114 126 139
143 133 126 126 130 137 139 146 161 170 170 179 194 194 181 169 158 162 161 153 153 154 149 153 163 163 162 174 194 198 199 200 195 193 198 199 201 204 205 205 203 198 198 201 200 202 204 205 208 205 195 198 200 188 160 123 114 112 108 104 105 110 117
143 137 121 115 109 111 118 130 152 170 177 184 203 202 191 178 156 157 157 149 149 148 148 157 168 170 172 180 188 181 175 184 189 188 191 192 192 196 198 195 190 186 186 189 191 195 198 192 182 175 164 153 144 131 121 117 115 112 107 105 106 112 120
137 125 109 107 98 94 103 109 121 153 156 155 180 186 181 176 163 156 150 143 142 144 152 159 155 161 171 171 167 167 174 184 187 181 181 186 187 187 183 181 184 184 181 181 183 184 182 174 167 160 146 133 127 123 121 121 116 111 106 107 112 119 123
131 119 105 105 103 95 95 99 113 134 126 120 135 155 157 156 149 138 133 131 133 141 149 148 142 147 152 144 146 164 181 179 173 171 175 177 180 185 185 184 186 182 171 165 166 166 160 153 146 139 133 129 127 126 123 120 116 112 108 109 116 120 121
126 117 103 104 109 103 102 114 138 145 133 129 133 133 135 139 131 126 129 127 123 126 128 127 132 135 130 128 140 156 161 153 151 157 162 164 171 185 187 180 173 162 146 139 145 148 142 135 132 131 131 129 126 123 122 120 117 114 112 113 118 121 122
124 117 108 117 124 115 109 133 157 154 147 144 141 136 146 156 142 132 131 123 116 120 129 135 140 140 140 145 147 144 137 130 129 134 142 153 165 175 169 154 145 139 130 128 135 138 133 131 133 134 132 129 125 123 123 121 118 115 113 114 116 118 122
121 116 113 126 135 123 120 136 141 141 141 140 135 133 148 158 147 138 134 125 120 129 139 147 150 147 147 145 136 131 129 126 126 128 133 141 149 153 144 134 131 132 131 131 136 136 133 134 137 136 133 130 127 125 125 124 121 118 116 117 116 116 118
119 119 120 131 137 128 131 138 136 134 132 130 127 127 132 140 145 143 138 131 128 133 138 143 143 140 138 131 123 123 124 124 125 128 131 135 139 141 138 135 134 134 132 133 135 135 136 139 141 137 131 124 123 125 126 124 122 119 119 120 118 115 114
120 119 128 146 148 136 133 135 134 132 128 124 121 122 123 126 130 128 125 124 127 134 140 143 141 137 134 129 126 127 128 128 129 130 131 133 135 136 135 133 132 129 126 125 128 132 135 138 136 132 125 120 122 125 124 122 122 121 122 121 119 117 115
122 113 122 139 142 138 135 133 132 131 126 120 117 117 116 114 112 110 112 118 123 127 132 135 134 132 131 131 133 135 135 135 137 138 140 141 141 141 138 135 135 134 132 130 129 129 131 131 130 127 124 125 127 126 124 125 126 126 126 125 123 120 116
128 117 123 131 136 137 136 133 132 129 126 123 121 119 118 118 114 111 113 119 121 123 125 125 126 128 129 130 131 132 131 134 137 139 142 144 146 147 145 144 144 144 141 139 137 135 134 132 129 128 127 129 131 132 133 135 134 132 132 131 128 125 121
135 129 133 135 134 134 134 133 132 130 129 129 128 125 124 122 118 115 115 118 123 127 130 128 127 127 128 128 128 128 130 133 135 134 136 138 140 141 139 138 138 139 139 139 141 142 142 140 137 137 137 137 138 141 143 142 138 136 135 133 130 129 132
142 140 146 145 141 138 138 139 139 136 134 134 132 131 129 124 120 119 119 120 126 132 135 134 131 129 130 132 133 134 136 137 137 135 136 138 140 139 138 136 135 134 134 135 136 137 139 138 136 136 137 137 138 141 143 140 136 134 133 131 129 128 130
146 145 152 153 150 147 147 148 146 142 140 139 138 137 134 129 126 125 123 124 130 134 136 137 134 133 135 138 138 138 140 141 140 138 137 140 141 141 140 139 136 134 131 130 130 130 130 129 129 130 132 134 137 140 139 137 135 134 132 130 128 127 123